Location: M�t�o Espelette
(43.3451°N, 1.4613°W)
Time: 16:25:48
(UTC+01:00)

ISS - Visible Passes

Search period start: 21 February 2018 00:00
Search period end: 03 March 2018 00:00
Orbit: 403 x 407 km, 51.6° (Epoch: 22 February)

Date Brightness Start Highest point End Pass type
(mag) Time Alt. Az. Time Alt. Az. Time Alt. Az.
25 Feb -1.2 07:13:50 10° S 07:16:25 22° SE 07:19:00 10° E visible
26 Feb -0.7 06:23:05 10° SSE 06:24:23 12° SE 06:25:42 10° ESE visible
27 Feb -2.9 07:05:01 10° SW 07:08:11 49° SE 07:11:23 10° ENE visible
28 Feb -1.9 06:13:47 13° S 06:16:02 27° SE 06:18:51 10° ENE visible
01 Mar -1.1 05:24:05 15° SE 05:24:05 15° SE 05:25:53 10° E visible
01 Mar -3.8 06:56:47 10° WSW 07:00:03 73° NNW 07:03:20 10° NE visible
02 Mar -3.5 06:06:54 42° SSW 06:07:46 62° SE 06:11:00 10° ENE visible
